OK1CMJ-5 Weather Reports


time (UTC)temp
F
wind
direction
speed
knots
gust
knots
rain 1hr
in
rain 24hr
in
rain mn
in
humidity
%
barometer
mb
20260503192532 61 179 0.0 1.7 0.00 0.00 0.00 10 1015.2
20260503191632 62 221 0.0 1.7 0.00 0.00 0.00 10 1015.1
20260503190733 63 228 0.9 2.6 0.00 0.00 0.00 10 1015.2
20260503184932 62 237 0.0 1.7 0.00 0.00 0.00 10 1015.0
20260503184033 64 219 0.0 1.7 0.00 0.00 0.00 10 1014.8
20260503183132 65 286 0.0 1.7 0.00 0.00 0.00 10 1014.8
20260503182232 67 314 0.0 2.6 0.00 0.00 0.00 10 1014.7
20260503181333 68 307 0.9 3.5 0.00 0.00 0.00 10 1014.5
20260503174633 70 318 0.9 1.7 0.00 0.00 0.00 10 1014.2
20260503173732 71 312 0.0 1.7 0.00 0.00 0.00 10 1014.2
20260503172832 72 1 0.0 1.7 0.00 0.00 0.00 10 1014.2
20260503171032 74 270 0.0 0.9 0.00 0.00 0.00 10 1014.2
20260503170132 75 200 0.0 2.6 0.00 0.00 0.00 10 1014.1
20260503150433 84 129 0.9 3.5 0.00 0.00 0.00 10 1014.7
20260503140132 83 133 1.7 5.2 0.00 0.00 0.00 10 1015.6
20260503110132 78 155 1.7 7.0 0.00 0.00 0.00 10 1017.7
20260503090432 76 115 1.7 3.5 0.00 0.00 0.00 10 1018.9
20260503081032 74 176 0.9 3.5 0.00 0.00 0.00 10 1019.0
20260503080132 73 146 1.7 3.5 0.00 0.00 0.00 10 1019.2
20260503072532 73 145 0.0 3.5 0.00 0.00 0.00 10 1019.1
20260503071632 72 144 0.0 1.7 0.00 0.00 0.00 10 1019.1
20260503070732 70 312 1.7 2.6 0.00 0.00 0.00 10 1019.1
20260503053732 65 181 0.9 1.7 0.00 0.00 0.00 13 1019.2
20260503052832 65 0 0.0 0.0 0.00 0.00 0.00 17 1019.2
20260503051932 63 0 0.0 0.0 0.00 0.00 0.00 24 1019.2
20260503051032 61 0 0.0 0.0 0.00 0.00 0.00 28 1019.2
20260503050132 58 0 0.0 0.0 0.00 0.00 0.00 32 1019.1
20260503045232 55 181 0.0 0.9 0.00 0.00 0.00 33 1019.0
20260503044332 53 181 0.0 0.9 0.00 0.00 0.00 37 1019.1
20260503043432 51 0 0.0 0.0 0.00 0.00 0.00 45 1019.2
20260503042532 49 181 0.0 0.9 0.00 0.00 0.00 48 1019.2
20260503041632 45 0 0.0 0.0 0.00 0.00 0.00 50 1019.1
20260503040732 42 0 0.0 0.0 0.00 0.00 0.00 53 1019.1
20260503034932 40 181 0.0 0.9 0.00 0.00 0.00 51 1019.1
20260503034032 39 286 0.0 1.7 0.00 0.00 0.00 51 1019.1
20260503033132 39 281 0.0 1.7 0.00 0.00 0.00 50 1019.1
20260503032232 39 181 0.0 0.9 0.00 0.00 0.00 48 1019.2
20260503031332 39 181 0.0 1.7 0.00 0.00 0.00 48 1019.1
20260503030432 40 0 0.0 0.0 0.00 0.00 0.00 47 1019.2
20260503025532 40 181 0.0 1.7 0.00 0.00 0.00 47 1019.1
20260503024632 40 202 0.0 1.7 0.00 0.00 0.00 47 1019.2
20260503023732 41 1 0.0 1.7 0.00 0.00 0.00 47 1019.1
20260503021932 41 181 0.0 1.7 0.00 0.00 0.00 46 1019.3
20260503020132 41 358 0.0 1.7 0.00 0.00 0.00 45 1019.1
20260503015232 42 268 0.0 1.7 0.00 0.00 0.00 45 1019.2
20260503014333 41 181 0.0 1.7 0.00 0.00 0.00 45 1019.3
20260503013432 41 181 0.0 1.7 0.00 0.00 0.00 45 1019.2
20260503010732 42 1 0.0 0.9 0.00 0.00 0.00 42 1019.4
20260503005832 42 1 0.0 1.7 0.00 0.00 0.00 42 1019.5
20260503004932 42 181 0.0 1.7 0.00 0.00 0.00 41 1019.5
20260503004032 42 1 0.0 1.7 0.00 0.00 0.00 41 1019.6
20260503002232 42 203 0.0 1.7 0.00 0.00 0.00 40 1019.7
20260503001332 42 202 0.0 0.9 0.00 0.00 0.00 39 1019.8
20260503000432 42 202 0.0 1.7 0.00 0.00 0.00 38 1020.1
20260502235532 42 202 0.0 1.7 0.00 0.00 0.00 38 1020.2
20260502234632 42 202 0.0 1.7 0.00 0.00 0.00 38 1020.1
20260502232832 42 202 0.0 0.9 0.00 0.00 0.00 36 1020.2
20260502231932 43 203 0.0 0.9 0.00 0.00 0.00 35 1020.2
20260502231032 43 203 0.0 1.7 0.00 0.00 0.00 35 1020.2
20260502230132 43 225 0.0 1.7 0.00 0.00 0.00 33 1020.2
20260502225232 43 225 0.0 1.7 0.00 0.00 0.00 33 1020.2
20260502224332 44 293 0.0 0.9 0.00 0.00 0.00 32 1020.2
20260502223432 44 318 0.0 0.9 0.00 0.00 0.00 32 1020.2
20260502222532 44 226 0.0 1.7 0.00 0.00 0.00 32 1020.3
20260502221632 44 187 0.0 1.7 0.00 0.00 0.00 33 1020.4
20260502220732 44 181 0.0 0.9 0.00 0.00 0.00 28 1020.4
20260502215832 45 181 0.0 1.7 0.00 0.00 0.00 27 1020.4
20260502214932 45 181 0.0 1.7 0.00 0.00 0.00 28 1020.5
20260502213132 46 191 0.0 1.7 0.00 0.00 0.00 24 1020.5
20260502212232 47 225 0.9 1.7 0.00 0.00 0.00 22 1020.3
20260502211332 47 225 0.0 1.7 0.00 0.00 0.00 20 1020.4
20260502205532 47 225 0.0 0.9 0.00 0.00 0.00 19 1020.5
20260502204632 47 274 0.0 1.7 0.00 0.00 0.00 18 1020.5
20260502203732 48 212 0.0 1.7 0.00 0.00 0.00 18 1020.5
20260502202832 47 216 0.0 1.7 0.00 0.00 0.00 18 1020.5
20260502201932 47 324 0.0 1.7 0.00 0.00 0.00 17 1020.3
20260502201032 48 1 0.0 0.9 0.00 0.00 0.00 18 1020.5
20260502200131 48 308 0.0 0.9 0.00 0.00 0.00 16 1020.4
20260502195232 49 225 0.0 0.9 0.00 0.00 0.00 16 1020.5
20260502194332 49 208 0.0 0.9 0.00 0.00 0.00 16 1020.7
20260502193432 50 226 0.0 1.7 0.00 0.00 0.00 16 1020.7